Погода в Сосновке

Россия / Камчатский край     53°05′01″N   158°17′59″E
темп.,
°C
ветер,
м/с
пор.,
м/с
влажн.,
%
обл.,
%
осадки,
мм/ч
давл.,
гПа
погр.,
м
12 мая, ср
ср1200:00+1зсз118358 0.1 1011218
03:000з11876 0.0 101011
06:000зюз11856 0.0 101017
09:00+2ююв007538 0.0 1010389
12:00+4ююв016376 0.1 1010971
15:00+6зюз235374 0.1 10091271
18:00+7з134670 0.2 10081352
21:00+5юз22708 0.0 100999
13 мая, чт
чт1300:00+3зюз33814 0.0 101054
03:00+3з327926 0.0 101033
06:00+2з338038 0.0 101166
09:00+4з34696 0.0 1012483
12:00+6з33585 0.0 1012742
15:00+7зюз33514 0.0 1012972
18:00+8зюз23485 0.0 10121090
21:00+7юв225940 0.0 1012135
14 мая, пт
пт1400:00+4зюз22745 0.0 1014121
03:00+2з33763 0.0 101480
06:00+1з33794 0.0 101578
09:00+4з33666 0.0 1016423
12:00+6з33538 0.0 1016692
15:00+9з334287 0.0 10151058
18:00+9з344598 0.0 10151056
21:00+9з3351100 0.0 1016172
15 мая, сб
сб1500:00+6з335855 0.0 101855
03:00+4з33631 0.0 101835
06:00+3з33652 0.0 101933
09:00+6зсз23503 0.0 1019318
12:00+10зсз12335 0.0 1019816
15:00+12з23270 0.0 10171259
18:00+12з34295 0.0 10171268
21:00+11з22382 0.0 101841
16 мая, вс
вс1600:00+8з22495 0.0 101813
03:00+6з22574 0.0 101811
06:00+4з11570 0.0 101810
09:00+7юв114480 0.0 1018289
12:00+8вюв2247100 0.0 1018620
15:00+7вюв3358100 0.0 1017480
18:00+5вюв2270100 0.0 1018313
21:00+3в2285100 0.0 1017226